[[{"header":{"parameterUnit":"m.s-1","parameterCategory":1,"la1":30.2991,"la2":30.254,"lo1":-89.0895,"lo2":-89.0444,"dy":0.0017,"dx":0.0017,"nx":28,"ny":28,"refTime":"2024-12-09T09:00:00:Z","depth":0,"parameterNumber":2,"parameterNumberName":"U-component_of_WINDS"},"data":[0,0,0,0,0,0,0,0,0,0,0,0,0,0,0,0,0,0,0,0,0,0,0,0,0,0,0,0,0,0,0,0,0,0,0,0,0,0,0,0,0,0,0,0,0,0,0,0,0,0,0,0,0,0,0,0,0,0,-0.0186,-0.0186,0,-0.0218,-0.0218,-0.0219,-0.025,-0.0251,-0.0251,-0.0252,-0.0286,-0.0286,-0.0287,0,0,0,0,0,0,0,0,0,0,0,0,0,-0.0151,-0.0151,-0.0186,-0.0186,-0.0186,-0.0218,-0.0218,-0.0219,-0.025,-0.0251,-0.0251,-0.0252,-0.0285,-0.0286,-0.0287,0,0,0,0,0,0,0,0,0,0,0,0,0,-0.0173,-0.0151,-0.0186,-0.0206,-0.0208,-0.0218,-0.0218,-0.0219,-0.025,-0.0251,-0.0251,-0.0252,-0.0285,-0.0286,-0.0287,-0.0279,0,0,-0.0289,-0.0289,0,0,0,0,0,0,0,0,-0.0172,-0.0174,-0.0203,-0.0205,-0.0207,-0.0231,-0.0219,-0.0239,-0.025,-0.0234,-0.0252,-0.0252,-0.0267,-0.0269,-0.0274,-0.0281,-0.0282,-0.0289,-0.029,-0.029,-0.029,0,0,0,0,0,0,0,-0.017,-0.0173,-0.0199,-0.0203,-0.0206,-0.0213,-0.0217,-0.0223,-0.0247,-0.0236,-0.0238,-0.0241,-0.0268,-0.0273,-0.0275,-0.0283,-0.0289,-0.029,-0.029,-0.0291,-0.0283,-0.0282,0,0,0,0,0,0,-0.0165,-0.0171,-0.0198,-0.0199,-0.019,-0.0213,-0.0218,-0.0223,-0.0247,-0.0251,-0.0241,-0.0243,-0.0272,-0.0274,-0.0276,-0.0268,-0.029,-0.0291,-0.0291,-0.0283,-0.0283,-0.0282,0,0,0,0,0,0,-0.0164,-0.0167,-0.0196,-0.0186,-0.019,-0.0213,-0.0219,-0.0223,-0.0228,-0.0251,-0.0255,-0.0241,-0.0272,-0.0275,-0.0278,-0.0269,-0.0291,-0.0292,-0.0284,-0.0283,-0.0282,-0.0251,0,0,0,0,0,0,-0.0163,-0.0167,-0.0165,-0.0186,-0.0191,-0.0197,-0.0218,-0.0223,-0.0229,-0.0232,-0.0252,-0.0256,-0.0273,-0.0276,-0.0278,-0.0271,-0.0292,-0.0285,-0.0284,-0.0283,-0.0253,-0.0249,-0.0246,0,0,0,0,0,-0.0162,-0.0155,-0.0164,-0.0167,-0.0188,-0.0197,-0.02,-0.0218,-0.0228,-0.0226,-0.024,-0.0256,-0.027,-0.0276,-0.0279,-0.0271,-0.0286,-0.0284,-0.0283,-0.0255,-0.025,-0.0246,0,0,0,0,0,0,-0.0133,-0.0158,-0.0169,-0.0169,-0.018,-0.0202,-0.02,-0.0213,-0.0222,-0.0225,-0.0248,-0.0252,-0.0251,-0.0262,-0.0269,-0.0264,-0.028,-0.0279,-0.0258,-0.0253,-0.025,-0.0247,-0.0293,0,0,0,0,0,-0.0127,-0.0131,-0.0153,-0.0151,-0.0156,-0.0177,-0.0181,-0.0194,-0.0207,-0.0212,-0.0227,-0.0239,-0.0246,-0.025,-0.0258,-0.0255,-0.0259,-0.0251,-0.0247,-0.0244,-0.0243,-0.0239,-0.0236,-0.0277,-0.0277,-0.0277,0,0,-0.0114,-0.0128,-0.013,-0.0145,-0.0156,-0.016,-0.0181,-0.0184,-0.0187,-0.0213,-0.0216,-0.0227,-0.0242,-0.024,-0.0241,-0.0249,-0.0232,-0.0242,-0.0239,-0.024,-0.0238,-0.0234,-0.023,-0.0276,-0.0276,-0.0276,0,0,-0.0092,-0.0103,-0.0102,-0.0111,-0.0127,-0.014,-0.0139,-0.0159,-0.0167,-0.017,-0.0189,-0.0192,-0.0204,-0.0214,-0.022,-0.0199,-0.0213,-0.0201,-0.0182,-0.0179,-0.0175,-0.0173,-0.0164,-0.016,-0.0199,-0.0199,-0.0199,0,-0.0074,-0.008,-0.01,-0.0101,-0.0107,-0.013,-0.0128,-0.0136,-0.0153,-0.0157,-0.0166,-0.018,-0.0192,-0.0192,-0.0186,-0.0191,-0.019,-0.0198,-0.0174,-0.0172,-0.0169,-0.0161,-0.0158,-0.0198,-0.0198,-0.0198,-0.0198,0,-0.0057,-0.0061,-0.0058,-0.0072,-0.0078,-0.0078,-0.0096,-0.01,-0.0112,-0.0124,-0.0125,-0.014,-0.015,-0.0152,-0.0164,-0.0153,-0.0157,-0.017,-0.0186,-0.0163,-0.0156,-0.0153,-0.0195,-0.0196,-0.0196,-0.0197,0,0,-0.0019,-0.0043,-0.0041,-0.0047,-0.0064,-0.0068,-0.0068,-0.0077,-0.0079,-0.0089,-0.0089,-0.0098,-0.0109,-0.0116,-0.013,-0.0127,-0.0107,-0.014,-0.014,-0.0132,-0.0094,-0.0084,-0.008,-0.0116,-0.0116,-0.0116,-0.0092,0,0.0001,-0.0001,-0.0017,-0.0014,-0.0017,-0.0037,-0.0037,-0.0048,-0.0059,-0.0062,-0.0075,-0.008,-0.0095,-0.0099,-0.0097,-0.011,-0.01,-0.0112,-0.0116,-0.0116,-0.0111,-0.0076,-0.0066,-0.0043,-0.009,-0.0089,-0.0089,0,0.0023,0.0015,0.0019,0.0004,0.0002,0.0002,-0.0007,-0.0011,-0.0022,-0.003,-0.0036,-0.0051,-0.0052,-0.0067,-0.0067,-0.0075,-0.0078,-0.0084,-0.0084,-0.0084,-0.0101,-0.0075,-0.0037,-0.0033,-0.0085,-0.0085,-0.0085,0,0.0052,0.0042,0.0043,0.0039,0.0021,0.0022,0.0014,0.0002,-0.0001,-0.0009,-0.0011,-0.0019,-0.0023,-0.0029,-0.0045,-0.0054,-0.0043,-0.0059,-0.0049,-0.0048,-0.0045,-0.0045,-0.0006,-0.0048,-0.0048,-0.0048,-0.0048,0,0.0075,0.0079,0.0057,0.0057,0.0061,0.0043,0.0046,0.0037,0.0027,0.0026,0.0008,0.0007,-0.0014,-0.0017,-0.0029,-0.0027,-0.0029,-0.0035,-0.0038,-0.0033,-0.0032,-0.0034,-0.0036,-0.0047,-0.0047,-0.0048,-0.0048,0,0.0108,0.0093,0.0093,0.0077,0.0073,0.0077,0.0063,0.0063,0.0052,0.0051,0.005,0.0033,0.0029,0.0013,0.0004,-0.0004,0.0003,-0.0004,0.0007,0.0005,0.0018,0.0017,0.0057,0.0062,0.0016,0.0017,0.0017,0,0.0124,0.0126,0.0111,0.011,0.0104,0.0101,0.0098,0.008,0.0078,0.0066,0.0069,0.0064,0.0059,0.0054,0.004,0.0035,0.0028,0.0043,0.0027,0.0033,0.003,0.003,0.0031,0.0046,0.0047,0.0047,0.0047,0,0.0155,0.0149,0.0145,0.0139,0.0136,0.013,0.0124,0.0123,0.0104,0.0102,0.0099,0.0096,0.0089,0.0084,0.0077,0.0069,0.0056,0.0053,0.0055,0.0061,0.0068,0.0065,0.0017,0.0052,0.0051,0.0051,0.0051,0.0051,0.0181,0.0183,0.0173,0.017,0.0164,0.0158,0.0159,0.0149,0.0145,0.0139,0.0129,0.0127,0.0118,0.0107,0.01,0.0099,0.0091,0.0094,0.0095,0.0097,0.01,0.0068,0.0098,0.0098,0.0097,0.0097,0.0097,0,0.0212,0.0205,0.0203,0.0195,0.0193,0.0181,0.0174,0.0173,0.0172,0.0165,0.0161,0.0158,0.0155,0.0142,0.0137,0.0139,0.0133,0.0138,0.0138,0.0137,0.0107,0.0106,0.0143,0.0143,0.0143,0.0143,0.0143,0.0143,0.0228,0.0231,0.0224,0.0224,0.0217,0.0216,0.0214,0.0209,0.0203,0.0201,0.0199,0.0191,0.0182,0.0176,0.0173,0.0169,0.0169,0.0177,0.0171,0.0143,0.0139,0.0135,0.0134,0.0177,0.0177,0.0202,0.0202,0.0202]},{"header":{"parameterUnit":"m.s-1","parameterCategory":1,"la1":30.2991,"la2":30.254,"lo1":-89.0895,"lo2":-89.0444,"dy":0.0017,"dx":0.0017,"nx":28,"ny":28,"refTime":"2024-12-09T09:00:00:Z","depth":0,"parameterNumber":3,"parameterNumberName":"V-component_of_WINDS"},"data":[0,0,0,0,0,0,0,0,0,0,0,0,0,0,0,0,0,0,0,0,0,0,0,0,0,0,0,0,0,0,0,0,0,0,0,0,0,0,0,0,0,0,0,0,0,0,0,0,0,0,0,0,0,0,0,0,0,0,4.781,4.781,0,4.7876,4.7876,4.7877,4.7845,4.7844,4.7842,4.784,4.7906,4.7909,4.7913,0,0,0,0,0,0,0,0,0,0,0,0,0,4.7656,4.7659,4.781,4.781,4.7811,4.7876,4.7876,4.7877,4.7846,4.7844,4.7841,4.784,4.7905,4.7909,4.7913,0,0,0,0,0,0,0,0,0,0,0,0,0,4.7722,4.766,4.7809,4.7803,4.7803,4.7875,4.7877,4.7878,4.7846,4.7844,4.7841,4.7839,4.7904,4.7909,4.7914,4.7995,0,0,4.7929,4.7931,0,0,0,0,0,0,0,0,4.7719,4.7728,4.7803,4.7804,4.7804,4.785,4.7846,4.7917,4.7847,4.783,4.784,4.7837,4.7889,4.7895,4.7913,4.7998,4.8001,4.7929,4.7932,4.7934,4.7936,0,0,0,0,0,0,0,4.7714,4.7725,4.7836,4.7804,4.7805,4.7797,4.7804,4.786,4.7873,4.7831,4.7829,4.7837,4.7889,4.7908,4.7915,4.8002,4.7929,4.7934,4.7937,4.7939,4.816,4.8163,0,0,0,0,0,0,4.771,4.7721,4.7834,4.7838,4.7754,4.7802,4.7809,4.7838,4.7872,4.7875,4.7839,4.7836,4.7901,4.7909,4.7917,4.8017,4.7934,4.7939,4.7942,4.8157,4.8161,4.8164,0,0,0,0,0,0,4.7707,4.772,4.7831,4.7779,4.7793,4.7807,4.7839,4.784,4.786,4.7879,4.7881,4.7857,4.79,4.791,4.7977,4.8018,4.7941,4.7946,4.8154,4.8158,4.8162,4.8216,0,0,0,0,0,0,4.7702,4.7719,4.775,4.778,4.7795,4.789,4.7842,4.7843,4.7869,4.7864,4.7896,4.7898,4.7898,4.7969,4.7982,4.8024,4.795,4.815,4.8156,4.8161,4.821,4.8221,4.8231,0,0,0,0,0,4.7697,4.7762,4.7752,4.7766,4.7835,4.7892,4.7901,4.79,4.7872,4.7904,4.7916,4.7897,4.8012,4.7976,4.799,4.8034,4.8147,4.8154,4.816,4.8206,4.8219,4.8231,0,0,0,0,0,0,4.7735,4.7765,4.7755,4.7831,4.786,4.7887,4.7926,4.7914,4.7951,4.7945,4.7942,4.7949,4.802,4.8033,4.7994,4.8116,4.8075,4.8085,4.8105,4.8118,4.8128,4.8124,4.7954,0,0,0,0,0,4.7752,4.7797,4.7821,4.7886,4.7901,4.7912,4.7936,4.7934,4.7963,4.7974,4.7992,4.802,4.8063,4.8091,4.8131,4.8212,4.8219,4.8249,4.826,4.8268,4.8277,4.8323,4.8337,4.8185,4.8185,4.8185,0,0,4.7789,4.7811,4.7839,4.7894,4.7916,4.7963,4.7922,4.7972,4.8007,4.7982,4.8047,4.8061,4.8093,4.8168,4.8202,4.8181,4.832,4.8276,4.8283,4.8287,4.8331,4.8346,4.8358,4.8189,4.8189,4.8188,0,0,4.7879,4.7899,4.7957,4.798,4.8014,4.8021,4.8035,4.8065,4.8074,4.8139,4.8122,4.8163,4.8236,4.8261,4.8282,4.8385,4.8369,4.8397,4.8451,4.8497,4.8509,4.852,4.8558,4.8572,4.8406,4.8406,4.8406,0,4.7919,4.799,4.7988,4.8041,4.8067,4.8047,4.8107,4.8129,4.8174,4.8192,4.8169,4.8262,4.8282,4.8364,4.8389,4.8406,4.8423,4.8394,4.8507,4.8518,4.8528,4.8565,4.8579,4.8409,4.8409,4.8408,4.8408,0,4.8039,4.8088,4.8131,4.8177,4.8207,4.8262,4.827,4.8301,4.8296,4.8305,4.8373,4.8397,4.8443,4.8461,4.8456,4.8543,4.853,4.8507,4.8466,4.8546,4.8581,4.8594,4.8414,4.8413,4.8412,4.8411,0,0,4.8155,4.8201,4.8217,4.8238,4.8275,4.8313,4.8369,4.8415,4.8442,4.8474,4.8521,4.8585,4.8565,4.8589,4.8587,4.8626,4.8709,4.8599,4.86,4.862,4.8809,4.8828,4.8844,4.8699,4.8701,4.8703,4.8807,0,4.825,4.8348,4.8349,4.8439,4.8486,4.8469,4.8517,4.8545,4.8556,4.8597,4.8608,4.8655,4.8623,4.8639,4.8677,4.8691,4.8747,4.8683,4.8744,4.8746,4.8738,4.8862,4.8881,4.8978,4.8821,4.8823,4.8825,0,4.8373,4.8411,4.8507,4.8539,4.8559,4.8603,4.8646,4.8685,4.8717,4.8722,4.8752,4.8744,4.8801,4.8758,4.8837,4.8794,4.8819,4.8829,4.8833,4.884,4.8791,4.8874,4.9008,4.9024,4.8845,4.8844,4.8842,0,4.8451,4.8526,4.8593,4.8612,4.8651,4.8683,4.87,4.873,4.8759,4.8796,4.8815,4.8858,4.8883,4.8917,4.8921,4.8888,4.9002,4.8958,4.9009,4.901,4.9035,4.9034,4.9178,4.9048,4.9048,4.9048,4.9047,0,4.8558,4.8617,4.8629,4.8671,4.8738,4.8739,4.8805,4.882,4.8847,4.8892,4.8879,4.8921,4.8923,4.8967,4.8971,4.9038,4.9048,4.9055,4.9055,4.9057,4.9057,4.9074,4.9069,4.9051,4.9051,4.905,4.9049,0,4.8657,4.8667,4.874,4.8772,4.8781,4.8829,4.8856,4.8897,4.8907,4.8964,4.8977,4.8993,4.9044,4.9051,4.911,4.9113,4.9194,4.9187,4.9184,4.9184,4.9235,4.9231,4.9397,4.942,4.9273,4.9275,4.9276,0,4.8725,4.8771,4.8808,4.8838,4.8858,4.8905,4.8935,4.8938,4.8969,4.9011,4.9046,4.9096,4.9136,4.9219,4.9235,4.9281,4.9276,4.9331,4.9283,4.9284,4.928,4.9278,4.9283,4.9341,4.9342,4.9344,4.9345,0,4.8846,4.885,4.8893,4.8939,4.8975,4.9011,4.9045,4.907,4.9077,4.9113,4.9166,4.9197,4.9259,4.9309,4.9355,4.9373,4.9361,4.936,4.9374,4.9378,4.9375,4.938,4.9212,4.9356,4.9355,4.9354,4.9353,4.9353,4.8934,4.8975,4.9009,4.9058,4.9084,4.9117,4.9157,4.9173,4.9217,4.9268,4.9267,4.9326,4.9358,4.9419,4.944,4.9486,4.9469,4.9489,4.9495,4.9501,4.9507,4.9367,4.9494,4.9494,4.9494,4.9493,4.9493,0,4.9057,4.9078,4.9123,4.9172,4.9212,4.9197,4.9235,4.9269,4.9321,4.9352,4.9393,4.9455,4.9504,4.9525,4.9574,4.9607,4.9603,4.9619,4.9618,4.9623,4.9519,4.9502,4.9622,4.9622,4.9622,4.9622,4.9622,4.9622,4.9125,4.9195,4.9203,4.9286,4.9306,4.9364,4.9387,4.9418,4.9444,4.9514,4.9555,4.9569,4.9597,4.9648,4.9693,4.9698,4.9717,4.9738,4.974,4.9643,4.963,4.9618,4.9602,4.9741,4.9741,4.9841,4.9842,4.9843]}]]